Rochester, NY

7:49 PM EST on January 22, 2017 (GMT -0500)
Greater Rochester International

Weather History for KROC - May, 2014

Change the Weather History Date:

Monday, May 26, 2014

  Actual Average Record
Temperature  
Mean Temperature 70 °F 60 °F  
Max Temperature 82 °F 71 °F 90 °F (1944)
Min Temperature 58 °F 50 °F 36 °F (1879)
Degree Days  
Heating Degree Days 0 6  
Month to date heating degree days 172 248  
Since 1 July heating degree days 6967 6551  
Cooling Degree Days 5 1  
Month to date cooling degree days 30 17  
Year to date cooling degree days 31 21  
Growing Degree Days 20 (Base 50)    
Moisture  
Dew Point 50 °F    
Average Humidity 51    
Maximum Humidity 67    
Minimum Humidity 35    
Precipitation  
Precipitation 0.00 in 0.10 in 1.03 in (1907)
Month to date precipitation 3.17 2.41  
Year to date precipitation 13.00 12.00  
Snow  
Snow 0.00 in 0.00 in 0.00 in ()
Month to date snowfall 0.0 0.4  
Since 1 July snowfall 112.7 99.5  
Snow Depth 0.00 in    
Sea Level Pressure  
Sea Level Pressure 29.99 in    
Wind  
Wind Speed 12 mph (WSW)    
Max Wind Speed 25 mph    
Max Gust Speed 33 mph    
Visibility 10 miles    
Events      
T = Trace of Precipitation, MM = Missing Value Source: NWS Daily Summary

Daily Weather History Graph

Daily Weather History Graph

Search for Another Location

Airport or City:

Trip Planner

Search our weather history database for the weather conditions in past years. The results will help you decide how hot, cold, wet, or windy it might be!

Date:

Astronomy

May. 26, 2014 Rise Set
Actual Time 5:37 AM EDT 8:38 PM EDT
Civil Twilight 5:03 AM EDT 9:12 PM EDT
Nautical Twilight 4:20 AM EDT 9:56 PM EDT
Astronomical Twilight 3:29 AM EDT 10:47 PM EDT
Moon 4:22 AM EDT (5/26) 6:35 PM EDT (5/26)
Length of Visible Light 16h 08m
Length of Day
15h 00m
Waning Crescent, 5% of the Moon is Illuminated
May 26
Waning Crescent
May 28
New
Jun 5
First Quarter
Jun 13
Full
Jun 19
Last Quarter

Hourly Weather History & Observations

Time (EDT) Temp. Heat Index Dew Point Humidity Pressure Visibility Wind Dir Wind Speed Gust Speed Precip Events Conditions
12:54 AM 66.0 °F - 45.0 °F 47% 30.05 in 10.0 mi WSW 10.4 mph - N/A   Overcast
1:54 AM 64.9 °F - 45.0 °F 48% 30.04 in 10.0 mi WSW 10.4 mph - N/A   Overcast
2:54 AM 63.0 °F - 46.9 °F 56% 30.04 in 10.0 mi SW 8.1 mph - N/A   Overcast
3:54 AM 62.1 °F - 46.0 °F 56% 30.04 in 10.0 mi SW 6.9 mph - N/A   Overcast
4:54 AM 60.1 °F - 46.0 °F 60% 30.04 in 10.0 mi SW 6.9 mph - N/A   Overcast
5:54 AM 57.9 °F - 46.0 °F 65% 30.04 in 10.0 mi SW 8.1 mph - N/A   Mostly Cloudy
6:54 AM 60.1 °F - 46.9 °F 62% 30.05 in 10.0 mi SW 8.1 mph - N/A   Mostly Cloudy
7:54 AM 66.0 °F - 48.9 °F 54% 30.06 in 10.0 mi WSW 8.1 mph - N/A   Mostly Cloudy
8:54 AM 72.0 °F - 48.9 °F 44% 30.05 in 10.0 mi West 12.7 mph - N/A   Mostly Cloudy
9:54 AM 75.0 °F - 52.0 °F 44% 30.03 in 10.0 mi West 12.7 mph 21.9 mph N/A   Mostly Cloudy
10:54 AM 78.1 °F - 53.1 °F 42% 30.02 in 10.0 mi WSW 13.8 mph 18.4 mph N/A   Mostly Cloudy
11:54 AM 81.0 °F 80.7 °F 55.0 °F 41% 30.01 in 10.0 mi West 8.1 mph 20.7 mph N/A   Mostly Cloudy
12:54 PM 81.0 °F - 52.0 °F 36% 29.99 in 10.0 mi West 23.0 mph 26.5 mph N/A   Mostly Cloudy
1:54 PM 82.0 °F 81.2 °F 53.1 °F 37% 29.97 in 10.0 mi West 20.7 mph 28.8 mph N/A   Mostly Cloudy
2:54 PM 81.0 °F 80.4 °F 53.1 °F 38% 29.96 in 10.0 mi WSW 21.9 mph 27.6 mph N/A   Mostly Cloudy
3:54 PM 82.0 °F 81.2 °F 53.1 °F 37% 29.94 in 10.0 mi West 16.1 mph 27.6 mph N/A   Mostly Cloudy
4:54 PM 81.0 °F - 52.0 °F 36% 29.94 in 10.0 mi West 17.3 mph 27.6 mph N/A   Mostly Cloudy
5:54 PM 79.0 °F - 51.1 °F 38% 29.93 in 10.0 mi West 17.3 mph 25.3 mph N/A   Mostly Cloudy
6:54 PM 79.0 °F - 48.9 °F 35% 29.92 in 10.0 mi West 16.1 mph 27.6 mph N/A   Mostly Cloudy
7:54 PM 75.9 °F - 48.9 °F 38% 29.92 in 10.0 mi West 12.7 mph - N/A   Mostly Cloudy
8:54 PM 72.0 °F - 51.1 °F 48% 29.92 in 10.0 mi WSW 8.1 mph - N/A   Mostly Cloudy
9:54 PM 70.0 °F - 51.1 °F 51% 29.92 in 10.0 mi WSW 10.4 mph - N/A   Mostly Cloudy
10:54 PM 70.0 °F - 51.1 °F 51% 29.91 in 10.0 mi WSW 10.4 mph - N/A   Mostly Cloudy
11:54 PM 69.1 °F - 52.0 °F 54% 29.91 in 10.0 mi SW 6.9 mph - N/A   Mostly Cloudy